Regional Weather Roundup
Issued by NWS Midland/Odessa, TX

Home | Current Version | Previous Version | Text Only | Print | Product List | Glossary On
Versions: 1 2 3 4 5 6 7 8 9 10 11 12 13 14 15 16 17 18 19 20 21 22 23 24 25 26 27 28 29 30 31 32 33 34 35 36 37 38 39 40 41 42 43 44 45 46 47 48 49 50
000
ASUS44 KMAF 221910
RWRMAF
MIDLAND AREA WEATHER ROUNDUP
NATIONAL WEATHER SERVICE MIDLAND TX
200 PM CDT SUN OCT 22 2017

...IN SOUTHWEST TEXAS AND SOUTHEAST NEW MEXICO...

CITY           SKY/WX    TMP DP  RH WIND       PRES   REMARKS
ALPINE         SUNNY     71  26  19 NE7       30.39F
ANDREWS        FAIR      67  29  24 SE5       30.30F
ARTESIA        SUNNY     66  28  24 SE12      30.31F
BIG SPRING     SUNNY     67  30  24 CALM      30.30F
CARLSBAD       SUNNY     66  34  30 SE10      30.29F
DRYDEN           N/A     76  40  27 N8        30.24F
FORT STOCKTON  SUNNY     67  39  35 N5        30.30F
GUAD PASS      SUNNY     69  27  20 SW12      30.37
HOBBS          SUNNY     66  27  22 S9        30.30F
LAMESA         FAIR      66  27  22 E10       30.29F
MARFA          SUNNY     74  26  16 NW6       30.34F
MIDLAND AIRPK  SUNNY     68  30  24 CALM      30.29F
MIDLAND INTL   SUNNY     70  29  21 MISG      30.29F
ODESSA         NOT AVBL
PECOS          SUNNY     67  38  34 SW6       30.30F
PRESIDIO       FAIR      82  29  14 SW6       30.25F
SEMINOLE       SUNNY     67  27  22 S3        30.31F
SNYDER         SUNNY     67  29  24 S3        30.28F
WINK           SUNNY     69  32  25 VRB5      30.28F
$$
...OTHER STATIONS IN TEXAS...

CITY           SKY/WX    TMP DP  RH WIND       PRES   REMARKS
ABILENE        SUNNY     69  37  30 N12       30.25F
AMARILLO       MOSUNNY   64  25  22 SW12G17   30.26F
AUSTIN         MOSUNNY   75  59  57 N13       30.13F
BROWNSVILLE    MOSUNNY   91  75  59 MISG      30.00F HX 101
CORPUS CHRISTI LGT RAIN  76  67  73 NE23G35   30.05R
DALLAS FTW     MOSUNNY   74  40  29 N22       30.14F
DEL RIO        SUNNY     79  49  34 N9        30.18F
EL PASO        MOSUNNY   73  10   9 N8        30.31F
HOUSTON INT    PTSUNNY   70  62  76 NW8       30.09F
LUBBOCK        PTSUNNY   66  27  23 S5        30.28F
SAN ANGELO     SUNNY     73  32  22 N12G17    30.24F
SAN ANTONIO    SUNNY     79  52  38 N13       30.14F
WACO           MOSUNNY   75  55  49 NW10G23   30.14F
WICHITA FALLS  SUNNY     67  39  35 SW9       30.15F
$$
...OTHER LOCATIONS IN NEW MEXICO...

CITY           SKY/WX    TMP DP  RH WIND       PRES   REMARKS
ALAMOGORDO     SUNNY     68  14  12 NW8       30.34F
ALBUQUERQUE    MOSUNNY   59  10  14 SE3       30.40F
CANNON AFB     SUNNY     64  26  23 SW12G18   30.29F
CLOVIS           N/A     65  30  27 SW13G20   30.29F
HOLLOMAN AFB   SUNNY     71  14  11 N13       30.34F
ROSWELL        SUNNY     66  29  24 S9        30.30F
RUIDOSO        SUNNY     64  19  17 N12G22    30.40F
SANTA FE       SUNNY     55  12  18 SW12      30.39F
TRUTH OR CONSE SUNNY     68  14  12 CALM      30.35F
TUCUMCARI      CLOUDY    68  26  20 SW16      30.23F
$$




USA.gov is the U.S. government's official web portal to all federal, state and local government web resources and services.